Location: Dos Palmas
(32.4468°N, 116.8732°W)
Time: 00:38:07
(UTC+00:00)

USA 229 DEB - Pass Details

Date: 20 June 2021
Orbit: 955 x 1257 km, 63.4° (Epoch: 25 July)

Event Time Altitude Azimuth Distance (km) Brightness Sun altitude
Exits shadow 07:32:03 49° 49° (NE) 1,268 4.2 -34.0°
Drops below altitude 10° 07:36:47 10° 34° (NE) 2,824 6.5 -34.0°
Sets 07:39:29 0° 33° (NNE) 3,821 7.3 -34.1°
